Regional Weather Roundup
Issued by NWS New Orleans/Baton Rouge, LA

Home | Current Version | Previous Version | Text Only | Print | Product List | Glossary Off
Versions: 1 2 3 4 5 6 7 8 9 10 11 12 13 14 15 16 17 18 19 20 21 22 23 24 25 26 27 28 29 30 31 32 33 34 35 36 37 38 39 40 41 42 43 44 45 46 47 48 49 50

283
ASUS44 KLIX 020210
RWRLIX
NEW ORLEANS REGIONAL WEATHER ROUNDUP
NATIONAL WEATHER SERVICE NEW ORLEANS LA
900 PM CDT FRI AUG 01 2014

NOTE: "FAIR" INDICATES FEW OR NO CLOUDS BELOW 12,000 FEET WITH NO
      SIGNIFICANT WEATHER AND/OR OBSTRUCTIONS TO VISIBILITY.
      SKY/WX - SKY CONDITION AND SIGNIFICANT WEATHER.
      TMP - AIR TEMPERATURE.     DP    - DEWPOINT TEMPERATURE.
      RH  - RELATIVE HUMIDITY.   PRES  - PRESSURE.
      HI  - HEAT INDEX.          WCI   - WIND CHILL INDEX.

*  THESE STATIONS ARE NOT NWS OR FAA STATIONS AND ARE NOT UNDER
   NWS QUALITY CONTROL.

LAZ038-040-048-061>063-065>067-069-020300-
SOUTHEAST LOUISIANA

CITY           SKY/WX    TMP DP  RH WIND       PRES   REMARKS
N.O. AUDUBON     N/A     85  69  58 MISG        N/A
N.O. INTL ARPT MOCLDY    81  67  62 SE6       29.95F
N.O. LAKEFRONT PTCLDY    82  71  69 SE7       29.96F
N.O. DOWNTOWN*   N/A     84  64  51 SE7       29.96S
SLIDELL        PTCLDY    77  70  79 CALM      29.97R
BATON ROUGE    CLOUDY    77  74  90 E3        29.95S
BOOTHVILLE     PTCLDY    80  69  69 E3        29.98R
BELLE CHASSE   MOCLDY    81  68  64 SE6       29.95F
BOGALUSA*        N/A     77  71  81 CALM      29.99S
GALLIANO*      NOT AVBL
NEW ROADS*     CLOUDY    77  74  90 SE5       29.94S
GONZALES*      MOCLDY    76  76 100 CALM      29.95R FOG
HAMMOND*       CLOUDY    79  70  73 E6        29.98S
HOUMA*         PTCLDY    77  69  74 CALM      29.96R
PORT FOURCHON* CLEAR     82  70  65 SE7       29.97F

$$

MSZ070-080>082-020300-
SOUTHERN MISSISSIPPI

CITY           SKY/WX    TMP DP  RH WIND       PRES   REMARKS
MCCOMB         CLOUDY    73  71  93 CALM      29.98S FOG
GULFPORT       CLOUDY    80  70  71 CALM      29.98R
BILOXI         CLOUDY    78  70  74 NE1       29.98R
PASCAGOULA     CLOUDY    75  72  90 CALM      29.97S

$$

COASTAL OBSERVATIONS
LAKE AND NEARSHORE STATIONS

STATION/POSITION TIME  TEMP    WIND        PRES    WAVE
                       AIR SEA DIR/SP/G            HT/PER
                 (UTC) (F)     (DEG/KT/KT) (MB)    (FT/S)
PASCAGOULA       0200   79     340/  3/  4 1014.4
WAVELAND YACHT   0200   80      CALM  /  1 1014.6
GRAND ISLE       0200   82 86  140/  4/  5 1015.2
SOUTHWEST PASS   0200   82 86   90/  4/  5 1015.3
NEW CANAL        0200   82 83   CALM  /  1 1014.8
SHELL BEACH      0200   82 82  120/  6/  9 1014.5

OFFSHORE STATIONS

STATION/POSITION TIME  TEMP    WIND        PRES    WAVE
                       AIR SEA DIR/SP/G            HT/PER
                 (UTC) (F)     (DEG/KT/KT) (MB)    (FT/S)
64 S DAUPHIN ISL 0056   82 85   60/  4/  6 1015.0

$$




USA.gov is the U.S. government's official web portal to all federal, state and local government web resources and services.